DW2074 Weather Reports


time (UTC)temp
F
wind
direction
speed
knots
gust
knots
rain 1hr
in
rain 24hr
in
rain mn
in
humidity
%
barometer
mb
20260507000444 50 100 0.0 0.0 0.00 0.04 0.04 91 1010.5
20260506235940 50 100 0.0 0.0 0.00 0.04 0.04 91 1010.5
20260506235438 50 54 0.0 0.0 0.00 0.04 0.04 91 1010.5
20260506234933 50 54 0.0 0.0 0.00 0.04 0.04 91 1010.5
20260506234431 51 112 0.0 0.0 0.00 0.04 0.04 91 1010.3
20260506233929 51 112 0.0 0.0 0.00 0.04 0.04 91 1010.3
20260506233425 51 159 0.0 0.0 0.00 0.04 0.04 92 1010.5
20260506232921 51 159 0.0 0.0 0.00 0.04 0.04 92 1010.5
20260506232418 51 151 0.0 0.0 0.00 0.04 0.04 93 1010.3
20260506231914 51 151 0.0 0.0 0.00 0.04 0.04 93 1010.3
20260506231412 52 47 0.9 1.7 0.00 0.04 0.04 93 1009.8
20260506230909 52 47 0.9 1.7 0.00 0.04 0.04 93 1009.8
20260506230405 52 104 0.0 0.0 0.00 0.04 0.04 94 1009.9
20260506225901 52 104 0.0 0.0 0.00 0.04 0.04 94 1009.9
20260506225359 52 95 0.0 0.0 0.00 0.04 0.04 93 1009.7
20260506224856 52 95 0.0 0.0 0.00 0.04 0.04 93 1009.7
20260506224353 52 112 0.0 0.0 0.00 0.04 0.04 92 1009.3
20260506223849 52 112 0.0 0.0 0.00 0.04 0.04 92 1009.3
20260506223344 53 98 0.0 0.9 0.00 0.04 0.04 94 1009.2
20260506222842 53 98 0.0 0.9 0.00 0.04 0.04 94 1009.2
20260506222337 53 145 0.0 0.0 0.00 0.04 0.04 94 1009.0
20260506221835 53 145 0.0 0.0 0.00 0.04 0.04 94 1009.0
20260506221333 54 237 0.0 0.0 0.00 0.04 0.04 93 1008.6
20260506220830 54 237 0.0 0.0 0.00 0.04 0.04 93 1008.6
20260506220325 55 55 0.9 0.9 0.00 0.04 0.04 91 1008.2
20260506215823 55 55 0.9 0.9 0.00 0.04 0.04 91 1008.2
20260506215318 58 147 0.0 0.0 0.07 0.04 0.04 89 1007.9
20260506214814 58 147 0.0 0.0 0.07 0.04 0.04 89 1007.9
20260506214311 63 29 0.9 0.9 0.00 0.03 0.03 85 1007.0
20260506213810 63 29 0.9 0.9 0.00 0.03 0.03 85 1007.0
20260506213306 63 122 0.0 0.0 0.00 0.03 0.03 86 1006.7
20260506212804 63 122 0.0 0.0 0.00 0.03 0.03 86 1006.7
20260506212259 64 124 0.0 0.9 0.00 0.03 0.03 86 1006.0
20260506211754 64 124 0.0 0.9 0.00 0.03 0.03 86 1006.0
20260506211251 64 125 0.0 0.0 0.00 0.03 0.03 86 1006.2
20260506210748 64 125 0.0 0.0 0.00 0.03 0.03 86 1006.2
20260506210245 63 82 0.0 0.9 0.00 0.03 0.03 86 1006.2
20260506205742 63 82 0.0 0.9 0.00 0.03 0.03 86 1006.2
20260506205238 64 148 0.0 0.0 0.00 0.03 0.03 86 1006.1
20260506204735 64 148 0.0 0.0 0.00 0.03 0.03 86 1006.1
20260506204232 64 131 0.0 0.0 0.00 0.03 0.03 87 1005.9
20260506203730 64 131 0.0 0.0 0.00 0.03 0.03 87 1005.9
20260506203227 64 141 0.9 1.7 0.00 0.03 0.03 86 1006.0
20260506202725 64 141 0.9 1.7 0.00 0.03 0.03 86 1006.0
20260506202221 64 124 0.0 0.0 0.00 0.03 0.03 87 1006.0
20260506201718 64 124 0.0 0.0 0.00 0.03 0.03 87 1006.0
20260506201214 64 131 1.7 1.7 0.00 0.03 0.03 88 1006.1
20260506200712 64 131 1.7 1.7 0.00 0.03 0.03 88 1006.1
20260506200208 63 155 0.9 0.9 0.00 0.03 0.03 89 1006.2
20260506195704 63 155 0.9 0.9 0.00 0.03 0.03 89 1006.2
20260506195201 63 142 0.0 0.0 0.00 0.03 0.03 89 1006.4
20260506194659 63 142 0.0 0.0 0.00 0.03 0.03 89 1006.4
20260506194154 63 144 0.0 0.0 0.00 0.03 0.03 90 1006.0
20260506193652 63 144 0.0 0.0 0.00 0.03 0.03 90 1006.0
20260506193149 63 147 0.0 0.0 0.00 0.03 0.03 91 1006.4
20260506192646 63 147 0.0 0.0 0.00 0.03 0.03 91 1006.4
20260506192142 63 147 0.0 0.0 0.00 0.03 0.03 92 1006.4
20260506191639 63 147 0.0 0.0 0.00 0.03 0.03 92 1006.4
20260506191135 63 142 0.0 0.0 0.00 0.03 0.03 92 1006.4
20260506190633 63 142 0.0 0.0 0.00 0.03 0.03 92 1006.4
20260506190129 62 133 0.0 0.0 0.00 0.03 0.03 94 1006.3
20260506185627 62 133 0.0 0.0 0.00 0.03 0.03 94 1006.3
20260506185123 61 119 0.0 0.0 0.00 0.03 0.03 94 1006.6
20260506184620 61 119 0.0 0.0 0.00 0.03 0.03 94 1006.6
20260506184117 61 140 0.0 0.0 0.00 0.03 0.03 95 1006.7
20260506183614 61 140 0.0 0.0 0.00 0.03 0.03 95 1006.7
20260506183110 61 90 0.9 0.9 0.00 0.03 0.03 94 1006.6
20260506182608 61 90 0.9 0.9 0.00 0.03 0.03 94 1006.6
20260506182104 61 138 0.0 0.0 0.00 0.03 0.03 95 1006.7
20260506181602 61 138 0.0 0.0 0.00 0.03 0.03 95 1006.7
20260506181059 60 69 1.7 1.7 0.00 0.03 0.03 96 1006.9
20260506180556 60 69 1.7 1.7 0.00 0.03 0.03 96 1006.9
20260506180052 60 133 0.0 0.0 0.00 0.03 0.03 95 1007.0
20260506175548 60 133 0.0 0.0 0.00 0.03 0.03 95 1007.0
20260506175044 60 133 0.0 0.0 0.00 0.03 0.03 95 1006.9
20260506174544 60 133 0.0 0.0 0.00 0.03 0.03 95 1006.9
20260506174039 60 143 0.0 0.0 0.00 0.03 0.03 95 1006.9
20260506173537 60 143 0.0 0.0 0.00 0.03 0.03 95 1006.9
20260506173034 60 170 0.0 0.0 0.00 0.03 0.03 94 1006.8
20260506172531 60 170 0.0 0.0 0.00 0.03 0.03 94 1006.8
20260506172027 60 181 0.0 0.0 0.00 0.03 0.03 94 1007.0
20260506171525 60 181 0.0 0.0 0.00 0.03 0.03 94 1007.0
20260506171022 60 124 0.0 0.0 0.00 0.03 0.03 94 1007.0
20260506170520 60 124 0.0 0.0 0.00 0.03 0.03 94 1007.0
20260506170018 60 153 0.0 0.0 0.00 0.03 0.03 94 1006.9
20260506165516 60 153 0.0 0.0 0.00 0.03 0.03 94 1006.9
20260506165011 60 150 0.0 0.0 0.00 0.03 0.03 94 1006.7
20260506164508 60 150 0.0 0.0 0.00 0.03 0.03 94 1006.7
20260506164006 60 119 0.0 0.0 0.00 0.03 0.03 94 1006.9
20260506163502 60 119 0.0 0.0 0.00 0.03 0.03 94 1006.9
20260506162956 61 91 0.9 0.9 0.00 0.03 0.03 94 1006.8
20260506162454 61 91 0.9 0.9 0.00 0.03 0.03 94 1006.8
20260506161951 61 132 0.9 0.9 0.00 0.03 0.03 93 1006.7
20260506161449 61 132 0.9 0.9 0.00 0.03 0.03 93 1006.7
20260506160946 60 144 0.0 0.0 0.00 0.03 0.03 94 1006.8
20260506160443 60 144 0.0 0.0 0.00 0.03 0.03 94 1006.8
20260506155941 60 142 0.0 0.0 0.00 0.03 0.03 94 1006.7
20260506155438 60 142 0.0 0.0 0.00 0.03 0.03 94 1006.7
20260506153605 60 125 0.0 0.0 0.00 0.03 0.03 95 1007.1
20260506153102 60 140 0.0 0.0 0.05 0.03 0.03 94 1007.3
20260506152559 60 140 0.0 0.0 0.05 0.03 0.03 94 1007.3
20260506152057 60 151 0.0 0.0 0.00 0.02 0.02 94 1007.5
20260506151555 60 151 0.0 0.0 0.00 0.02 0.02 94 1007.5
20260506151052 60 155 0.9 0.9 0.00 0.02 0.02 92 1007.1
20260506150548 60 155 0.9 0.9 0.00 0.02 0.02 92 1007.1
20260506150045 60 160 0.0 0.0 0.00 0.02 0.02 92 1007.2
20260506145542 60 160 0.0 0.0 0.00 0.02 0.02 92 1007.2
20260506145039 60 149 0.0 0.0 0.00 0.02 0.02 92 1007.2
20260506144536 60 149 0.0 0.0 0.00 0.02 0.02 92 1007.2
20260506144033 61 149 0.9 0.9 0.00 0.02 0.02 91 1007.2
20260506143531 61 149 0.9 0.9 0.00 0.02 0.02 91 1007.2
20260506143029 60 135 0.0 0.0 0.00 0.02 0.02 92 1007.3
20260506142526 60 135 0.0 0.0 0.00 0.02 0.02 92 1007.3
20260506142025 60 127 0.0 0.0 0.00 0.02 0.02 90 1007.4
20260506141522 60 127 0.0 0.0 0.00 0.02 0.02 90 1007.4
20260506141020 60 140 0.0 0.0 0.00 0.02 0.02 91 1007.4
20260506140517 60 140 0.0 0.0 0.00 0.02 0.02 91 1007.4
20260506140015 60 141 0.0 0.0 0.00 0.02 0.02 92 1007.4
20260506135511 60 141 0.0 0.0 0.00 0.02 0.02 92 1007.4
20260506135007 60 142 0.0 0.0 0.00 0.02 0.02 92 1007.3
20260506134503 60 142 0.0 0.0 0.00 0.02 0.02 92 1007.3
20260506134000 60 142 0.0 0.0 0.00 0.02 0.02 90 1007.8
20260506133457 60 142 0.0 0.0 0.00 0.02 0.02 90 1007.8
20260506132954 60 142 0.0 0.0 0.00 0.02 0.02 90 1007.8
20260506132451 60 142 0.0 0.0 0.00 0.02 0.02 90 1007.8
20260506131948 61 143 0.0 0.0 0.00 0.02 0.02 89 1007.9
20260506131444 61 143 0.0 0.0 0.00 0.02 0.02 89 1007.9
20260506130942 61 142 0.0 0.0 0.12 0.02 0.02 86 1008.1
20260506130438 61 142 0.0 0.0 0.12 0.02 0.02 86 1008.1
20260506125936 61 118 0.0 0.0 0.00 0.00 0.00 84 1008.1
20260506125434 61 118 0.0 0.0 0.00 0.00 0.00 84 1008.1
20260506124932 62 120 0.0 0.0 0.00 0.00 0.00 83 1008.2
20260506124430 62 120 0.0 0.0 0.00 0.00 0.00 83 1008.2
20260506123927 62 122 0.0 0.0 0.00 0.00 0.00 79 1007.9
20260506123425 62 122 0.0 0.0 0.00 0.00 0.00 79 1007.9
20260506122922 63 141 0.0 0.0 0.00 0.00 0.00 77 1007.8
20260506122419 63 141 0.0 0.0 0.00 0.00 0.00 77 1007.8
20260506121918 64 148 0.0 0.0 0.00 0.00 0.00 72 1007.5
20260506121414 64 148 0.0 0.0 0.00 0.00 0.00 72 1007.5
20260506120911 65 158 0.0 0.0 0.00 0.00 0.00 68 1007.4
20260506120408 65 158 0.0 0.0 0.00 0.00 0.00 68 1007.4
20260506115906 66 158 0.9 0.9 0.00 0.00 0.00 63 1007.4
20260506115404 66 158 0.9 0.9 0.00 0.00 0.00 63 1007.4
20260506114902 66 157 0.0 0.0 0.00 0.00 0.00 60 1007.5
20260506114359 66 128 0.9 1.7 0.00 0.00 0.00 60 1007.5
20260506113858 66 128 0.9 1.7 0.00 0.00 0.00 60 1007.5
20260506113355 66 196 0.9 0.9 0.00 0.00 0.00 61 1007.5
20260506112851 66 196 0.9 0.9 0.00 0.00 0.00 61 1007.5
20260506112348 65 131 0.0 0.0 0.00 0.00 0.00 61 1007.3
20260506111846 65 131 0.0 0.0 0.00 0.00 0.00 61 1007.3
20260506111344 66 159 0.9 0.9 0.00 0.00 0.00 59 1007.1
20260506110841 66 159 0.9 0.9 0.00 0.00 0.00 59 1007.1
20260506110338 66 126 0.0 0.0 0.00 0.00 0.00 60 1007.1
20260506105835 66 126 0.0 0.0 0.00 0.00 0.00 60 1007.1
20260506105331 66 117 0.0 0.0 0.00 0.00 0.00 61 1006.8
20260506104829 66 117 0.0 0.0 0.00 0.00 0.00 61 1006.8
20260506104327 66 139 0.0 0.0 0.00 0.00 0.00 61 1006.7
20260506103824 66 139 0.0 0.0 0.00 0.00 0.00 61 1006.7
20260506103321 66 159 0.9 1.7 0.00 0.00 0.00 57 1006.6
20260506102819 66 159 0.9 1.7 0.00 0.00 0.00 57 1006.6
20260506102316 67 170 1.7 2.6 0.00 0.00 0.00 54 1006.4
20260506101814 67 170 1.7 2.6 0.00 0.00 0.00 54 1006.4
20260506101309 67 124 0.9 0.9 0.00 0.00 0.00 53 1006.4
20260506100808 67 124 0.9 0.9 0.00 0.00 0.00 53 1006.4
20260506100306 67 125 0.9 1.7 0.00 0.00 0.00 52 1006.4
20260506095804 67 125 0.9 1.7 0.00 0.00 0.00 52 1006.4
20260506095300 67 143 0.0 0.0 0.00 0.00 0.00 52 1006.6
20260506094757 67 143 0.0 0.0 0.00 0.00 0.00 52 1006.6
20260506094256 67 128 0.0 0.0 0.00 0.00 0.00 52 1006.7
20260506093754 67 128 0.0 0.0 0.00 0.00 0.00 52 1006.7
20260506093250 67 159 0.0 0.0 0.00 0.00 0.00 54 1006.6
20260506092749 67 159 0.0 0.0 0.00 0.00 0.00 54 1006.6
20260506092246 67 159 0.0 0.0 0.00 0.00 0.00 51 1006.5
20260506091743 67 159 0.0 0.0 0.00 0.00 0.00 51 1006.5
20260506091240 67 115 0.0 0.0 0.00 0.00 0.00 50 1006.7
20260506090738 67 115 0.0 0.0 0.00 0.00 0.00 50 1006.7
20260506090235 67 113 0.9 0.9 0.00 0.00 0.00 50 1006.7
20260506085732 67 113 0.9 0.9 0.00 0.00 0.00 50 1006.7
20260506085228 67 144 0.0 0.0 0.00 0.00 0.00 49 1006.9
20260506084725 67 144 0.0 0.0 0.00 0.00 0.00 49 1006.9
20260506084221 68 149 0.0 0.0 0.00 0.00 0.00 47 1006.8
20260506083718 68 149 0.0 0.0 0.00 0.00 0.00 47 1006.8
20260506083216 69 133 0.0 0.0 0.00 0.00 0.00 46 1006.9
20260506082713 69 133 0.0 0.0 0.00 0.00 0.00 46 1006.9
20260506082209 69 135 0.9 0.9 0.00 0.00 0.00 45 1007.0
20260506081706 69 135 0.9 0.9 0.00 0.00 0.00 45 1007.0
20260506081204 69 133 0.0 0.0 0.00 0.00 0.00 46 1006.8
20260506080701 69 133 0.0 0.0 0.00 0.00 0.00 46 1006.8
20260506080158 68 120 0.0 0.0 0.00 0.00 0.00 45 1007.0
20260506073142 69 162 0.9 0.9 0.00 0.00 0.00 44 1007.0
20260506072638 69 162 0.9 0.9 0.00 0.00 0.00 44 1007.0
20260506072136 69 140 0.9 0.9 0.00 0.00 0.00 45 1007.1
20260506071633 69 140 0.9 0.9 0.00 0.00 0.00 45 1007.1
20260506071131 69 127 0.9 0.9 0.00 0.00 0.00 43 1007.1
20260506070627 69 127 0.9 0.9 0.00 0.00 0.00 43 1007.1
20260506070125 68 180 0.0 0.0 0.00 0.00 0.00 44 1007.2
20260506062103 68 159 0.0 0.0 0.00 0.00 0.00 43 1007.7
20260506061558 68 159 0.0 0.0 0.00 0.00 0.00 43 1007.7
20260506061056 67 157 0.0 0.0 0.00 0.00 0.00 47 1007.5
20260506060554 67 157 0.0 0.0 0.00 0.00 0.00 47 1007.5
20260506051023 67 134 0.9 0.9 0.00 0.00 0.00 45 1008.1
20260506050521 67 134 0.9 0.9 0.00 0.00 0.00 45 1008.1
20260506045011 64 147 0.0 0.0 0.00 0.00 0.00 56 1008.0
20260506044509 64 147 0.0 0.0 0.00 0.00 0.00 56 1008.0
20260506044006 63 167 0.0 0.0 0.00 0.00 0.00 59 1008.1
20260506043503 63 167 0.0 0.0 0.00 0.00 0.00 59 1008.1
20260506043001 61 149 0.0 0.0 0.00 0.00 0.00 63 1008.0
20260506042500 61 149 0.0 0.0 0.00 0.00 0.00 63 1008.0
20260506041957 61 155 0.0 0.0 0.00 0.00 0.00 66 1008.2
20260506041455 61 155 0.0 0.0 0.00 0.00 0.00 66 1008.2
20260506040953 60 149 0.0 0.0 0.00 0.00 0.00 69 1008.1
20260506040450 60 149 0.0 0.0 0.00 0.00 0.00 69 1008.1
20260506035946 60 147 0.0 0.0 0.00 0.05 0.05 72 1008.3
20260506035443 60 147 0.0 0.0 0.00 0.05 0.05 72 1008.3
20260506034940 60 146 0.0 0.0 0.00 0.05 0.05 73 1008.1
20260506034438 60 146 0.0 0.0 0.00 0.05 0.05 73 1008.1
20260506033934 60 152 0.0 0.0 0.00 0.05 0.05 72 1008.4
20260506033432 60 152 0.0 0.0 0.00 0.05 0.05 72 1008.4
20260506032928 59 140 0.0 0.0 0.00 0.05 0.05 73 1008.1
20260506032425 59 140 0.0 0.0 0.00 0.05 0.05 73 1008.1
20260506031922 59 143 0.0 0.0 0.00 0.05 0.05 71 1008.2
20260506031419 59 143 0.0 0.0 0.00 0.05 0.05 71 1008.2
20260506030917 59 145 0.0 0.0 0.00 0.05 0.05 71 1008.2
20260506030415 59 145 0.0 0.0 0.00 0.05 0.05 71 1008.2
20260506025911 60 145 0.0 0.0 0.00 0.05 0.05 70 1008.2
20260506025408 60 145 0.0 0.0 0.00 0.05 0.05 70 1008.2
20260506024905 60 145 0.0 0.0 0.00 0.05 0.05 70 1008.3
20260506024402 60 145 0.0 0.0 0.00 0.05 0.05 70 1008.3
20260506023858 61 145 0.0 0.0 0.00 0.05 0.05 68 1008.3
20260506023355 61 145 0.0 0.0 0.00 0.05 0.05 68 1008.3
20260506022851 62 145 0.0 0.0 0.00 0.05 0.05 66 1008.2
20260506022349 62 145 0.0 0.0 0.00 0.05 0.05 66 1008.2
20260506021847 63 145 0.0 0.0 0.00 0.05 0.05 66 1008.4
20260506021344 63 145 0.0 0.0 0.00 0.05 0.05 66 1008.4
20260506020840 63 145 0.0 0.0 0.00 0.05 0.05 63 1008.3
20260506020338 63 145 0.0 0.0 0.00 0.05 0.05 63 1008.3
20260506015836 64 145 0.0 0.0 0.00 0.05 0.05 64 1008.4
20260506015333 64 145 0.0 0.0 0.00 0.05 0.05 64 1008.4
20260506014829 65 145 0.0 0.0 0.00 0.05 0.05 63 1008.2
20260506014326 65 145 0.0 0.0 0.00 0.05 0.05 63 1008.2
20260506013823 66 145 0.0 0.0 0.00 0.05 0.05 60 1008.2
20260506013320 66 145 0.0 0.0 0.00 0.05 0.05 60 1008.2
20260506012817 66 145 0.0 0.0 0.00 0.05 0.05 58 1008.2
20260506012314 66 145 0.0 0.0 0.00 0.05 0.05 58 1008.2
20260506011811 67 145 0.0 0.0 0.00 0.05 0.05 57 1007.9
20260506011308 67 145 0.0 0.0 0.00 0.05 0.05 57 1007.9
20260506010805 68 145 0.0 0.0 0.00 0.05 0.05 56 1007.6
20260506010303 68 145 0.0 0.0 0.00 0.05 0.05 56 1007.6
20260506005800 69 145 0.0 0.0 0.00 0.05 0.05 53 1007.8
20260506005257 69 145 0.0 0.0 0.00 0.05 0.05 53 1007.8
20260506004752 69 145 0.0 0.0 0.00 0.05 0.05 51 1007.5
20260506004250 70 145 0.0 0.0 0.00 0.05 0.05 51 1007.4
20260506003746 70 145 0.0 0.0 0.00 0.05 0.05 51 1007.4
20260506003243 71 145 0.0 0.0 0.00 0.05 0.05 50 1007.4
20260506002739 71 145 0.0 0.0 0.00 0.05 0.05 50 1007.4
20260506002235 72 144 0.0 0.0 0.00 0.05 0.05 45 1007.1
20260506001731 72 144 0.0 0.0 0.00 0.05 0.05 45 1007.1
20260506001229 72 145 0.0 0.0 0.00 0.05 0.05 48 1007.2
20260506000725 72 145 0.0 0.0 0.00 0.05 0.05 48 1007.2